Regional Weather Roundup
Issued by NWS Charleston, SC

Current Version | Previous Version | Text Only | Print | Product List | Glossary Off
Versions: 1 2 3 4 5 6 7 8 9 10 11 12 13 14 15 16 17 18 19 20 21 22 23 24 25 26 27 28 29 30 31 32 33 34 35 36 37 38 39 40 41 42 43 44 45 46 47 48 49 50

000
ASUS42 KCHS 212212
RWRCHS

REGIONAL WEATHER ROUNDUP
NATIONAL WEATHER SERVICE CHARLESTON SC
600 PM EDT SAT OCT 21 2017

NOTE: "FAIR" INDICATES FEW OR NO CLOUDS BELOW 12,000 FEET WITH NO
SIGNIFICANT WEATHER AND/OR OBSTRUCTIONS TO VISIBILITY.

NOT ALL STATIONS ARE QUALITY CONTROLLED. USE DATA WITH CAUTION...
ESPECIALLY DEWPOINT OBSERVATIONS.

SCZ027-030-031-034>040-042>050-212300-
...SOUTHEAST SOUTH CAROLINA...

CITY           SKY/WX    TMP DP  RH WIND       PRES   REMARKS
N CHARLESTON   MOCLDY    75  63  66 E10       30.26S
WATERFRONT PRK NOT AVBL
JOHNS ISLAND   FAIR      73  66  78 NE8       30.27R
PINOPOLIS        N/A     75  68  78 VRB2      30.20R
MONCKS CORNER  FAIR      75  63  64 E3        30.27R
SUMMERVILLE    MOCLDY    75  64  69 CALM      30.27S
BEAUFORT MCAS  PTCLDY    76  67  73 MISG      30.25F
BEAUFORT ARPT  FAIR      73  64  73 E9G16     30.25S
HILTON HEAD IS PTCLDY    73  66  78 MISG      30.26S
WALTERBORO     PTCLDY    75  63  64 E3        30.27R
ALLENDALE        N/A     77  59  53 CALM        N/A

...SOUTHERN MIDLANDS AND PEE DEE...

CITY           SKY/WX    TMP DP  RH WIND       PRES   REMARKS
GEORGETOWN     FAIR      72  64  78 E6        30.29S
KINGSTREE      FAIR      72  61  68 CALM      30.28R
ORANGEBURG     CLOUDY    76  46  34 NE6       30.27R
BARNWELL         N/A     77  52  41 E5        30.26S
AIKEN          FAIR      73  46  38 E3        30.30S
MANNING        FAIR      73  63  68 MISG      30.27S
COLUMBIA       CLOUDY    78  56  46 SE7       30.27R
SUMTER         CLOUDY    78  52  41 E6        30.26R
FLORENCE       CLOUDY    75  54  47 SE5       30.29R
MYRTLE BEACH   CLEAR     72  63  73 E5        30.30S
N MYRTLE BEACH CLEAR     74  62  66 E7        30.29R

$$

GAZ063-065-086>088-099>101-113>116-118-119-134>141-150-212300-
...SOUTHEAST GEORGIA...

CITY           SKY/WX    TMP DP  RH WIND       PRES   REMARKS
SAVANNAH ARPT  MOCLDY    78  63  59 E13       30.25R
HUNTER AAF     PTCLDY    76  65  67 E9        30.22S
FORT STEWART   PTCLDY    76  63  63 E8        30.22S
STATESBORO     PTCLDY    78  56  46 E3        30.25S
SYLVANIA       CLOUDY    77  63  62 SE3       30.26R
CLAXTON        FAIR      80  65  59 E8        30.23S

...CSRA...CENTRAL AND FAR SOUTHEAST GEORGIA...

CITY           SKY/WX    TMP DP  RH WIND       PRES   REMARKS
THOMSON        PTCLDY    74  54  49 S3        30.31S
AUGUSTA-BUSH   CLOUDY    74  61  63 CALM      30.25R
AUGUSTA-DANIEL CLOUDY    78  48  34 E6        30.27R
SWAINSBORO     FAIR      79  55  44 E5        30.24S
VIDALIA        MOCLDY    79  63  57 E6        30.23S
EASTMAN        FAIR      81  44  26 E5        30.24S
HAZLEHURST     FAIR      81  52  36 SE9       30.21R
ALMA           PTCLDY    79  63  57 E7        30.21R
WAYCROSS       PTCLDY    80  62  52 SE14      30.21R
JESUP          NOT AVBL
BAXLEY         FAIR      77  63  61 E6        30.22R
BRUNSWICK      CLEAR     75  66  73 NE9       30.23S
SAINT SIMONS   CLEAR     77  70  79 NE13      30.21S

$$

SCZ027-028-034-036>038-045-046-048>050-GAZ119-141-212300-
...LAKE AND SUPPLEMENTAL COASTAL OBSERVATIONS...

STATION/POSITION TIME  TEMP    WIND        PRES    WAVE   SWELL
                       AIR SEA DIR/SP/G            HT/PER HT/PER/DIR
                 (UTC) (F)     (DEG/KT/KT) (MB)    (FT/S) (FT/S/D)
WINYAH BAY       NOT AVBL
LAKE MURRAY      2120   78      70/  4/  7 1024.0S
ACE BASIN NERRS  2045   80      80/  4     1025.0
FORT PULASKI     2136   74 74   80/ 14/ 18 1024.6S
SAPELO ISLAND    NOT AVBL

$$

ANZ835-935-AMZ111-154-330-350-352-354-370-450-454-472-212300-
...C-MAN AND BUOY OBSERVATIONS...

STATION/POSITION TIME  TEMP    WIND        PRES    WAVE   SWELL
                       AIR SEA DIR/SP/G            HT/PER HT/PER/DIR
                 (UTC) (F)     (DEG/KT/KT) (MB)    (FT/S) (FT/S/D)
BUOY 41004       2150   77 80   50/ 16/ 19 1023.9R   4/ 9   2/110/ 9
BUOY 41008       2150   78 77   80/  8/ 10 1023.0S   5/ 5   5/ 70/ 5
FOLLY BEACH CMAN 2100   73      60/ 13/ 15 1025.6R
CAPERS NEARSHORE 2108   71 73   70/ 12/ 17 1024.5S
FRIPP NEARSHORE  2108   75      60/ 14/ 19   N/A


STATION/POSITION TIME  TEMP    WIND        PRES    WAVE   SWELL
                       AIR SEA DIR/SP/G            HT/PER HT/PER/DIR
                 (UTC) (F)     (DEG/KT/KT) (MB)    (FT/S) (FT/S/D)
5E ST. MARYS GA  2130      77                N/A     4/ 7
FRYING PAN BUOY  2150   75      60/ 12/ 14 1025.3R
BUOY 41025       2150   73 81   10/  8/ 10 1026.3R   3/ 8   3/110/ 8
CAPE LOOKOUT NC  2100   72      60/ 11/ 11 1026.0R
BUOY 41002       2150   77 80   80/ 12/ 14 1024.3R   4/ 8   3/100/ 8
BUOY 41010       NOT AVBL
ST AUGUSTINE FL  2200   79 78   80/ 14/ 16 1022.1R


$$




USA.gov is the U.S. government's official web portal to all federal, state and local government web resources and services.